CZ-3C DEB, 39340

Orbit data source: Space-Track

CZ-3C DEB, 39340 is space debris in HEO originally from a launch on Sun, 31 Oct 2010 UTC launched from the Xichang Space Center, China (XSC). Debris objects in space refer to the collection of defunct objects orbiting the Earth. Examples of debris include non-operational satellites, rocket bodies, and fragments generated from explosions, collisions, or faulty payload assembly.

Loading next visibility...
Identifier
39340, 2010-057E
Orbit
HEO
Country
Flag of CNCN / PRC
Related business
Manufacturer
CALT
Mission
Spacecraft
Bus & Motor
Unknown
Mass
Unknown
Launch date (UTC)
2010-10-31 (15 years ago)
Launch vehicle
Unknown
Launch site
Xichang Space Center, China (XSC)
Object type
Payload
Rocket body
Debris
Shape & HBR
Unknown shape, 0.3 m
Radar Cross Section
Medium (>0.1 m² and <1 m²)

Expand to show TLE details & history
Last TLE update: 9 hours ago

TLE from 9 hours ago
0 CZ-3C DEB
1 39340U 10057E   26105.65522608  .00000811  00000-0  44629-2 0  9997
2 39340  19.8784 355.7472 7170156  13.9100 358.4637  2.31133308103871
Epoch: 2026-04-15T15:43Z
TLE epoch observation values (Epoch: 2026-04-15T15:43:31.533Z)
Latitude
-0.00092°
Longitude
-83.95858°
Altitude
515.345 km
Speed
9.957 km/s
True Right ascension
23h 42m 56s
True Declination
0° 00' 03"
Sunlit
Object was in daylight at epoch
Visualization orbit readout
Latitude
Unknown
Longitude
Unknown
Altitude
Unknown
Speed
Unknown
Apparent Right ascension
Unknown
Apparent Declination
Unknown
Sunlit
N/A
Visualization observer readout
Local Sidereal Time
07:28:11
Azimuth
Unknown
Elevation
Unknown
Doppler factor
Unknown
Orbital elements
Apogee altitude
35,118.663 km
Perigee altitude
461.025 km
Semi-major axis
24,167.981 km
Eccentricity
0.71702
Inclination
19.8784°
RAAN
355.7472°
Arg. of periapsis
13.91°
True anomaly
346.72718°
Mean anomaly
358.4637°
Eccentric anomaly
354.59142°
Mean motion
0.57767 °/min
Orbital period
623.19 mins
BSTAR
0.0044629
Loading maneuver chart data...
Computing Atmospheric mass density...
Loading historical data...
Loading historical data...
Loading historical data...
Loading historical data...
Loading historical data...
Loading historical data...
Loading historical data...

Documentation

Showing up to 5 results
|